UAE78P EIDW-OMDB

Flight info

Callsign UAE78P
Flight time N/A
Altitude 33000
Route ENDEQ1E ENDEQ Q36 EPOXI L15 FINMA DCT CHT DCT ITVIP DCT KONAN DCT KOK DCT SISGA DCT RITAX DCT EDISA DCT PICWI DCT UTABA DCT BEMKI DCT ELMEM DCT DIRAB DCT PEVAL DCT AIOSA DCT XAPAT DCT NOSTO DCT SALUN N705 MMA P751 DASUM Y234 FYM M872 BDB Y214 RAPMA DCT KUVSO DCT KATIT DCT PEKEM M628 RIGIL G783 ASPED Q308 KIPOK Q568 IMPED
Aircraft B77W/H-SDE1E2E3FGHIJ2J3J4J5M1RWXY/LB1D1

Departure

Time N/A
Airport Dublin Airport (EIDW)

Arrival

Time 2026-04-22 11:39
Airport Dubai International Airport (OMDB)
Time Latitude Longitude Altitude Speed Heading
2026-04-22 11:10 23.00746 55.13195 36724 ft 543 kts 73°
2026-04-22 11:10 23.01698 55.17126 36719 ft 533 kts 62°
2026-04-22 11:10 23.03445 55.20579 36744 ft 515 kts 44°
2026-04-22 11:10 23.05888 55.23330 36754 ft 500 kts 31°
2026-04-22 11:11 23.08712 55.25490 36744 ft 493 kts 21°
2026-04-22 11:11 23.11753 55.27010 36744 ft 480 kts
2026-04-22 11:11 23.14964 55.27912 36778 ft 477 kts
2026-04-22 11:12 23.21468 55.29678 36756 ft 484 kts
2026-04-22 11:12 23.27970 55.31544 36732 ft 479 kts
2026-04-22 11:13 23.34364 55.33431 36741 ft 475 kts
2026-04-22 11:13 23.40700 55.35293 36746 ft 474 kts
2026-04-22 11:14 23.47085 55.37170 36762 ft 476 kts
2026-04-22 11:14 23.53502 55.39060 36760 ft 478 kts
2026-04-22 11:15 23.59923 55.40966 36755 ft 479 kts
2026-04-22 11:15 23.66338 55.42877 36760 ft 480 kts
2026-04-22 11:15 23.69573 55.43839 36415 ft 486 kts
2026-04-22 11:16 23.72872 55.44817 35658 ft 492 kts
2026-04-22 11:16 23.76168 55.45802 34870 ft 486 kts
2026-04-22 11:16 23.79396 55.46772 34065 ft 477 kts
2026-04-22 11:16 23.82592 55.47726 33164 ft 477 kts
2026-04-22 11:17 23.85804 55.48680 32253 ft 480 kts
2026-04-22 11:17 23.89040 55.49639 31347 ft 483 kts
2026-04-22 11:17 23.92296 55.50606 30446 ft 487 kts 10°
2026-04-22 11:17 23.95556 55.51577 29822 ft 484 kts 11°
2026-04-22 11:18 23.98722 55.52773 29076 ft 481 kts 19°
2026-04-22 11:18 24.01697 55.54464 28440 ft 482 kts 27°
2026-04-22 11:18 24.04471 55.56517 27829 ft 482 kts 34°
2026-04-22 11:18 24.06995 55.58930 27254 ft 480 kts 39°
2026-04-22 11:19 24.09441 55.61402 26674 ft 477 kts 39°
2026-04-22 11:19 24.11836 55.63837 26102 ft 474 kts 39°
2026-04-22 11:19 24.14255 55.66281 25512 ft 471 kts 39°
2026-04-22 11:19 24.16660 55.68690 24959 ft 468 kts 39°
2026-04-22 11:20 24.19068 55.71088 24378 ft 466 kts 39°
2026-04-22 11:20 24.21471 55.73472 23794 ft 464 kts 39°
2026-04-22 11:20 24.23866 55.75845 23180 ft 463 kts 40°
2026-04-22 11:20 24.26247 55.78208 22518 ft 461 kts 40°
2026-04-22 11:21 24.28614 55.80558 21919 ft 457 kts 40°
2026-04-22 11:21 24.30962 55.82892 21344 ft 453 kts 40°
2026-04-22 11:21 24.33260 55.85178 20773 ft 450 kts 40°
2026-04-22 11:21 24.35569 55.87475 20204 ft 447 kts 40°
2026-04-22 11:22 24.37855 55.89751 19964 ft 440 kts 40°
2026-04-22 11:22 24.40120 55.92011 19814 ft 443 kts 41°
2026-04-22 11:22 24.42396 55.94284 19762 ft 440 kts 40°
2026-04-22 11:22 24.44657 55.96546 19297 ft 436 kts 40°
2026-04-22 11:23 24.46861 55.98753 18742 ft 422 kts 41°
2026-04-22 11:23 24.49003 56.00896 18015 ft 415 kts 41°
2026-04-22 11:23 24.51185 56.02911 17550 ft 404 kts 32°
2026-04-22 11:23 24.53683 56.04264 17159 ft 400 kts 16°
2026-04-22 11:24 24.56389 56.04909 16804 ft 396 kts
2026-04-22 11:24 24.59128 56.05062 16469 ft 393 kts 359°
2026-04-22 11:24 24.61842 56.05158 16132 ft 395 kts
2026-04-22 11:24 24.64591 56.05270 15788 ft 395 kts 359°
2026-04-22 11:25 24.67333 56.05389 15458 ft 394 kts 359°
2026-04-22 11:25 24.70082 56.05513 15127 ft 394 kts
2026-04-22 11:25 24.72818 56.05639 14818 ft 392 kts
2026-04-22 11:25 24.75517 56.05767 14776 ft 384 kts
2026-04-22 11:26 24.78187 56.05895 14603 ft 387 kts 360°
2026-04-22 11:26 24.80870 56.06019 14381 ft 383 kts
2026-04-22 11:26 24.83526 56.06145 13970 ft 381 kts
2026-04-22 11:26 24.86156 56.06271 13689 ft 374 kts
2026-04-22 11:27 24.88724 56.06394 13427 ft 363 kts
2026-04-22 11:27 24.91221 56.06514 12898 ft 353 kts 360°
2026-04-22 11:27 24.93623 56.06628 12208 ft 349 kts
2026-04-22 11:27 24.96041 56.06538 11469 ft 347 kts 345°
2026-04-22 11:28 24.98223 56.05479 10968 ft 343 kts 322°
2026-04-22 11:28 24.99941 56.03709 10651 ft 334 kts 306°
2026-04-22 11:28 25.01132 56.01542 10309 ft 328 kts 291°
2026-04-22 11:28 25.01855 55.99183 9856 ft 325 kts 283°
2026-04-22 11:29 25.02420 55.96802 9636 ft 312 kts 282°
2026-04-22 11:29 25.02936 55.94549 9471 ft 293 kts 282°
2026-04-22 11:29 25.03425 55.92415 9171 ft 282 kts 282°
2026-04-22 11:29 25.03902 55.90351 8787 ft 274 kts 282°
2026-04-22 11:30 25.04373 55.88322 8309 ft 271 kts 282°
2026-04-22 11:30 25.04842 55.86314 7810 ft 270 kts 282°
2026-04-22 11:30 25.05310 55.84317 7317 ft 268 kts 282°
2026-04-22 11:30 25.05778 55.82332 6853 ft 265 kts 282°
2026-04-22 11:31 25.06240 55.80370 6421 ft 262 kts 282°
2026-04-22 11:31 25.06698 55.78435 6033 ft 258 kts 283°
2026-04-22 11:31 25.07144 55.76552 5756 ft 258 kts 281°
2026-04-22 11:31 25.07601 55.74603 5516 ft 265 kts 282°
2026-04-22 11:32 25.08067 55.72636 5307 ft 266 kts 281°
2026-04-22 11:32 25.08532 55.70669 5058 ft 264 kts 282°
2026-04-22 11:32 25.08992 55.68721 4862 ft 258 kts 282°
2026-04-22 11:32 25.09439 55.66830 4681 ft 250 kts 282°
2026-04-22 11:33 25.09871 55.65004 4560 ft 241 kts 282°
2026-04-22 11:33 25.10434 55.63298 4327 ft 235 kts 295°
2026-04-22 11:33 25.11241 55.61754 4221 ft 230 kts 300°
2026-04-22 11:33 25.12080 55.60265 4038 ft 234 kts 300°
2026-04-22 11:34 25.12945 55.58724 3763 ft 234 kts 300°
2026-04-22 11:34 25.13786 55.57209 3440 ft 227 kts 300°
2026-04-22 11:34 25.14583 55.55771 3233 ft 211 kts 300°
2026-04-22 11:34 25.15327 55.54431 2955 ft 199 kts 300°
2026-04-22 11:35 25.16025 55.53171 2688 ft 186 kts 301°
2026-04-22 11:35 25.16680 55.51985 2456 ft 175 kts 300°
2026-04-22 11:35 25.17288 55.50891 2275 ft 168 kts 299°
2026-04-22 11:35 25.17895 55.49789 2083 ft 168 kts 301°
2026-04-22 11:36 25.18510 55.48680 1855 ft 170 kts 302°
2026-04-22 11:36 25.19117 55.47586 1639 ft 162 kts 302°
2026-04-22 11:36 25.19677 55.46569 1428 ft 149 kts 303°
2026-04-22 11:36 25.20232 55.45568 1270 ft 157 kts 305°
2026-04-22 11:37 25.20793 55.44558 1056 ft 149 kts 306°
2026-04-22 11:37 25.21312 55.43586 840 ft 148 kts 303°
2026-04-22 11:37 25.21845 55.42559 682 ft 154 kts 308°
2026-04-22 11:37 25.22385 55.41564 460 ft 146 kts 306°
2026-04-22 11:38 25.22742 55.40944 313 ft 143 kts 310°
2026-04-22 11:38 25.23474 55.39685 105 ft 150 kts 302°
2026-04-22 11:38 25.24446 55.37944 30 ft 97 kts 302°
2026-04-22 11:39 25.24717 55.37455 27 ft 52 kts 300°
2026-04-22 11:39 25.24777 55.37270 29 ft 27 kts 277°
2026-04-22 11:39 25.24785 55.37100 28 ft 22 kts 271°
2026-04-22 11:39 25.24806 55.36945 27 ft 20 kts 294°
2026-04-22 11:40 25.24860 55.36801 27 ft 20 kts 282°
2026-04-22 11:40 25.24895 55.36668 26 ft 8 kts 294°
2026-04-22 11:40 25.24916 55.36612 28 ft 8 kts 297°
2026-04-22 11:40 25.24947 55.36562 26 ft 8 kts 306°
2026-04-22 11:41 25.24978 55.36513 26 ft 8 kts 304°
2026-04-22 11:41 25.25008 55.36461 26 ft 8 kts 302°
2026-04-22 11:41 25.25025 55.36404 31 ft 8 kts 255°
2026-04-22 11:41 25.24984 55.36363 30 ft 8 kts 211°
2026-04-22 11:42 25.24935 55.36332 30 ft 8 kts 211°
2026-04-22 11:42 25.24902 55.36310 28 ft 2 kts 211°
2026-04-22 11:42 25.24890 55.36302 29 ft 2 kts 211°
2026-04-22 11:42 25.24882 55.36296 29 ft 0 kts 211°